This is the latest recevied weather packets stored in our database for station/object OK3MS-5. If no packets are shown the sender has not sent any weather packets the latest 10 day(s).
| Time | Temp. | Humidity | Pressure | Rain* | Wind** | Luminosity | Snow |
|---|---|---|---|---|---|---|---|
| 1787757903 | 24.44° C | 54% | 1015.1 hPa | 0 mm | - | 100 W/m² | - |
| 1787757602 | 24.44° C | 55% | 1015.1 hPa | 0 mm | - | 115 W/m² | - |
| 1787757304 | 24.44° C | 54% | 1015.1 hPa | 0 mm | - | 107 W/m² | - |
| 1787757003 | 24.44° C | 53% | 1015.1 hPa | 0 mm | - | 147 W/m² | - |
| 1787756706 | 25° C | 55% | 1014.9 hPa | 0 mm | - | 140 W/m² | - |
| 1787756405 | 25° C | 53% | 1015 hPa | 0 mm | - | 139 W/m² | - |
| 1787756103 | 25° C | 51% | 1014.9 hPa | 0 mm | - | 247 W/m² | - |
| 1787755804 | 25° C | 52% | 1014.9 hPa | 0 mm | - | 476 W/m² | - |
| 1787755503 | 25.56° C | 52% | 1014.8 hPa | 0 mm | - | 411 W/m² | - |
| 1787755203 | 25.56° C | 52% | 1014.8 hPa | 0 mm | - | 282 W/m² | - |
| 1787754904 | 25.56° C | 51% | 1014.8 hPa | 0 mm | - | 274 W/m² | - |
| 1787754603 | 25.56° C | 50% | 1014.7 hPa | 0 mm | - | 187 W/m² | - |
| 1787754305 | 25.56° C | 51% | 1014.9 hPa | 0 mm | - | 190 W/m² | - |
| 1787754002 | 25° C | 53% | 1014.9 hPa | 0 mm | - | 444 W/m² | - |
| 1787753704 | 25.56° C | 51% | 1014.9 hPa | 0 mm | - | 402 W/m² | - |
| 1787753402 | 25.56° C | 51% | 1014.8 hPa | 0 mm | - | 324 W/m² | - |
| 1787753106 | 25° C | 51% | 1015 hPa | 0 mm | - | 504 W/m² | - |
| 1787752807 | 25° C | 52% | 1015 hPa | 0 mm | - | 559 W/m² | - |
| 1787752504 | 25.56° C | 53% | 1014.9 hPa | 0 mm | - | 274 W/m² | - |
| 1787752203 | 25° C | 51% | 1015.1 hPa | 0 mm | - | 583 W/m² | - |
| 1787751902 | 24.44° C | 54% | 1015.3 hPa | 0 mm | - | 666 W/m² | - |
| 1787751605 | 24.44° C | 56% | 1015.4 hPa | 0 mm | - | 383 W/m² | - |
| 1787751305 | 24.44° C | 55% | 1015.3 hPa | 0 mm | - | 221 W/m² | - |
| 1787751003 | 23.89° C | 53% | 1015.4 hPa | 0 mm | - | 208 W/m² | - |
| 1787750703 | 24.44° C | 54% | 1015.3 hPa | 0 mm | - | 200 W/m² | - |
* Rain latest hour (hover to see other rain measurements)
** Current wind speed in m/s (hover to see current wind gust speed)